{"data":{"norad_id":66661,"intl_designator":"2025-274M","name":"SNUGLITE-III","alt_names":[],"object_type":"PAYLOAD","status":"ACTIVE","operator":null,"country":"SKOR","launch_date":"2025-11-26","launch_site_code":"NSC","launch_vehicle":null,"mission":null,"orbit_class":"UNKNOWN","rcs_meters":null,"size_class":null,"mass_kg":null,"dimensions":null,"purposes":[],"wikipedia_slug":null,"has_3d_model":false,"image_url":null,"decayed_at":null,"tle_current":{"epoch":"2026-09-20T13:05:03.257376Z","epoch_age_seconds":117106,"freshness":"FRESH","line1":"1 66661U 25274M   26263.54517659  .00001425  00000+0  13789-3 0  9998","line2":"2 66661  97.7489 191.7414 0015970  64.8441 295.4434 14.94259111 44474","mean_motion":14.94259111,"eccentricity":0.001597,"inclination_deg":97.7489,"raan_deg":191.7414,"arg_perigee_deg":64.8441,"mean_anomaly_deg":295.4434,"bstar":0.00013789,"rev_number":4447,"period_min":96.368828498313,"perigee_km":573.55374307143,"apogee_km":595.79295933317,"semimajor_km":6962.8103512023,"source":"CELESTRAK","updated_at":"2026-09-21T09:00:16.118023Z"}}}